Time,TemperatureF,DewpointF,PressureIn,WindDirection,WindDirectionDegrees,WindSpeedMPH,WindSpeedGustMPH,Humidity,HourlyPrecipIn,Conditions,Clouds,dailyrainin,SoftwareType,DateUTC
2013-03-26 00:00:00,31.7,28.0,30.02,West,270,0.0,4.0,86,0.00,,,0.08,Wunderground v.1.13,2013-03-26 04:00:00,
2013-03-26 00:10:00,31.7,28.0,30.02,West,270,0.0,4.0,86,0.00,,,0.08,Wunderground v.1.13,2013-03-26 04:10:00,
2013-03-26 00:20:00,31.7,28.0,30.02,West,270,0.0,4.0,86,0.00,,,0.08,Wunderground v.1.13,2013-03-26 04:20:00,
2013-03-26 00:30:00,31.7,28.0,30.02,West,270,0.0,4.0,86,0.00,,,0.08,Wunderground v.1.13,2013-03-26 04:30:00,
2013-03-26 00:40:00,31.7,28.0,30.02,West,270,0.0,4.0,86,0.00,,,0.08,Wunderground v.1.13,2013-03-26 04:40:00,
2013-03-26 00:50:00,31.5,28.1,30.01,WNW,293,0.0,3.0,87,0.00,,,0.08,Wunderground v.1.13,2013-03-26 04:50:00,
2013-03-26 01:00:00,31.5,28.1,30.01,WNW,293,0.0,3.0,87,0.00,,,0.08,Wunderground v.1.13,2013-03-26 05:00:00,
2013-03-26 01:10:00,31.5,28.1,30.01,WNW,293,0.0,3.0,87,0.00,,,0.08,Wunderground v.1.13,2013-03-26 05:10:00,
2013-03-26 01:20:00,31.5,28.1,30.02,West,270,0.0,4.0,87,0.00,,,0.08,Wunderground v.1.13,2013-03-26 05:20:00,
2013-03-26 01:30:00,31.5,28.1,30.02,West,270,0.0,4.0,87,0.00,,,0.08,Wunderground v.1.13,2013-03-26 05:30:00,
2013-03-26 01:40:00,31.5,28.1,30.02,West,270,0.0,4.0,87,0.00,,,0.08,Wunderground v.1.13,2013-03-26 05:40:00,
2013-03-26 01:50:00,31.2,28.3,30.02,West,270,0.0,5.0,89,0.00,,,0.08,Wunderground v.1.13,2013-03-26 05:50:00,
2013-03-26 02:00:00,31.2,28.3,30.02,West,270,0.0,5.0,89,0.00,,,0.08,Wunderground v.1.13,2013-03-26 06:00:00,
2013-03-26 02:10:00,31.2,28.3,30.02,West,270,0.0,5.0,89,0.00,,,0.08,Wunderground v.1.13,2013-03-26 06:10:00,
2013-03-26 02:20:00,30.9,28.3,30.02,West,270,0.0,4.0,90,0.00,,,0.08,Wunderground v.1.13,2013-03-26 06:20:00,
2013-03-26 02:30:00,30.9,28.3,30.02,West,270,0.0,4.0,90,0.00,,,0.08,Wunderground v.1.13,2013-03-26 06:30:00,
2013-03-26 02:40:00,30.9,28.3,30.02,West,270,0.0,4.0,90,0.00,,,0.08,Wunderground v.1.13,2013-03-26 06:40:00,
2013-03-26 02:50:00,30.8,28.5,30.01,West,270,0.0,3.0,91,0.00,,,0.08,Wunderground v.1.13,2013-03-26 06:50:00,
2013-03-26 03:00:00,30.8,28.5,30.01,West,270,0.0,3.0,91,0.00,,,0.08,Wunderground v.1.13,2013-03-26 07:00:00,
2013-03-26 03:10:00,30.8,28.5,30.01,West,270,0.0,3.0,91,0.00,,,0.08,Wunderground v.1.13,2013-03-26 07:10:00,
2013-03-26 03:20:00,30.6,28.6,30.01,West,270,0.0,2.0,92,0.00,,,0.08,Wunderground v.1.13,2013-03-26 07:20:00,
2013-03-26 03:30:00,30.6,28.6,30.01,West,270,0.0,2.0,92,0.00,,,0.08,Wunderground v.1.13,2013-03-26 07:30:00,
2013-03-26 03:40:00,30.6,28.6,30.01,West,270,0.0,2.0,92,0.00,,,0.08,Wunderground v.1.13,2013-03-26 07:40:00,
2013-03-26 03:50:00,30.8,28.8,30.01,NW,315,0.0,3.0,92,0.00,,,0.08,Wunderground v.1.13,2013-03-26 07:50:00,
2013-03-26 04:00:00,30.8,28.8,30.01,NW,315,0.0,3.0,92,0.00,,,0.08,Wunderground v.1.13,2013-03-26 08:00:00,
2013-03-26 04:10:00,30.8,28.8,30.01,NW,315,0.0,3.0,92,0.00,,,0.08,Wunderground v.1.13,2013-03-26 08:10:00,
2013-03-26 04:20:00,30.9,28.9,30.02,NW,315,0.0,2.0,92,0.00,,,0.08,Wunderground v.1.13,2013-03-26 08:20:00,
2013-03-26 04:30:00,30.9,28.9,30.02,NW,315,0.0,2.0,92,0.00,,,0.08,Wunderground v.1.13,2013-03-26 08:30:00,
2013-03-26 04:40:00,30.9,28.9,30.02,NW,315,0.0,2.0,92,0.00,,,0.08,Wunderground v.1.13,2013-03-26 08:40:00,
2013-03-26 04:50:00,31.1,28.8,30.01,WNW,293,0.0,3.0,91,0.00,,,0.08,Wunderground v.1.13,2013-03-26 08:50:00,
2013-03-26 05:00:00,31.1,28.8,30.01,WNW,293,0.0,3.0,91,0.00,,,0.08,Wunderground v.1.13,2013-03-26 09:00:00,
2013-03-26 05:10:00,31.1,28.8,30.01,WNW,293,0.0,3.0,91,0.00,,,0.08,Wunderground v.1.13,2013-03-26 09:10:00,
2013-03-26 05:20:00,31.2,28.9,30.03,WNW,293,0.0,2.0,91,0.00,,,0.08,Wunderground v.1.13,2013-03-26 09:20:00,
2013-03-26 05:30:00,31.2,28.9,30.03,WNW,293,0.0,2.0,91,0.00,,,0.08,Wunderground v.1.13,2013-03-26 09:30:00,
2013-03-26 05:40:00,31.2,28.9,30.03,WNW,293,0.0,2.0,91,0.00,,,0.08,Wunderground v.1.13,2013-03-26 09:40:00,
2013-03-26 05:50:00,31.2,28.6,30.04,West,270,0.0,2.0,90,0.00,,,0.08,Wunderground v.1.13,2013-03-26 09:50:00,
2013-03-26 06:00:00,31.2,28.6,30.04,West,270,0.0,2.0,90,0.00,,,0.08,Wunderground v.1.13,2013-03-26 10:00:00,
2013-03-26 06:10:00,31.2,28.6,30.04,West,270,0.0,2.0,90,0.00,,,0.08,Wunderground v.1.13,2013-03-26 10:10:00,
2013-03-26 06:20:00,31.2,28.6,30.05,WNW,293,0.0,2.0,90,0.00,,,0.08,Wunderground v.1.13,2013-03-26 10:20:00,
2013-03-26 06:30:00,31.2,28.6,30.05,WNW,293,0.0,2.0,90,0.00,,,0.08,Wunderground v.1.13,2013-03-26 10:30:00,
2013-03-26 06:40:00,31.2,28.6,30.05,WNW,293,0.0,2.0,90,0.00,,,0.08,Wunderground v.1.13,2013-03-26 10:40:00,
2013-03-26 06:50:00,31.4,28.8,30.06,WNW,293,0.0,2.0,90,0.00,,,0.08,Wunderground v.1.13,2013-03-26 10:50:00,
2013-03-26 07:00:00,31.4,28.8,30.06,WNW,293,0.0,2.0,90,0.00,,,0.08,Wunderground v.1.13,2013-03-26 11:00:00,
2013-03-26 07:10:00,31.4,28.8,30.06,WNW,293,0.0,2.0,90,0.00,,,0.08,Wunderground v.1.13,2013-03-26 11:10:00,
2013-03-26 07:20:00,31.4,28.8,30.07,West,270,0.0,3.0,90,0.00,,,0.08,Wunderground v.1.13,2013-03-26 11:20:00,
2013-03-26 07:30:00,31.4,28.8,30.07,West,270,0.0,3.0,90,0.00,,,0.08,Wunderground v.1.13,2013-03-26 11:30:00,
2013-03-26 07:40:00,31.4,28.8,30.07,West,270,0.0,3.0,90,0.00,,,0.08,Wunderground v.1.13,2013-03-26 11:40:00,
2013-03-26 07:50:00,32.0,29.7,30.08,West,270,0.0,2.0,91,0.00,,,0.08,Wunderground v.1.13,2013-03-26 11:50:00,
2013-03-26 08:00:00,32.0,29.7,30.08,West,270,0.0,2.0,91,0.00,,,0.08,Wunderground v.1.13,2013-03-26 12:00:00,
2013-03-26 08:10:00,32.0,29.7,30.08,West,270,0.0,2.0,91,0.00,,,0.08,Wunderground v.1.13,2013-03-26 12:10:00,
2013-03-26 08:20:00,32.6,29.4,30.09,WNW,293,0.0,4.0,88,0.00,,,0.08,Wunderground v.1.13,2013-03-26 12:20:00,
2013-03-26 08:30:00,32.6,29.4,30.09,WNW,293,0.0,4.0,88,0.00,,,0.08,Wunderground v.1.13,2013-03-26 12:30:00,
2013-03-26 08:40:00,32.6,29.4,30.09,WNW,293,0.0,4.0,88,0.00,,,0.08,Wunderground v.1.13,2013-03-26 12:40:00,
2013-03-26 08:50:00,32.4,30.1,30.11,WNW,293,0.0,4.0,91,0.01,,,0.08,Wunderground v.1.13,2013-03-26 12:50:00,
2013-03-26 09:00:00,32.4,30.1,30.11,WNW,293,0.0,4.0,91,0.01,,,0.08,Wunderground v.1.13,2013-03-26 13:00:00,
2013-03-26 09:10:00,32.4,30.1,30.11,WNW,293,0.0,4.0,91,0.01,,,0.08,Wunderground v.1.13,2013-03-26 13:10:00,
2013-03-26 09:20:00,33.1,31.3,30.12,NW,315,0.0,4.0,93,0.02,,,0.08,Wunderground v.1.13,2013-03-26 13:20:00,
2013-03-26 09:30:00,33.1,31.3,30.12,NW,315,0.0,4.0,93,0.02,,,0.08,Wunderground v.1.13,2013-03-26 13:30:00,
2013-03-26 09:40:00,33.1,31.3,30.12,NW,315,0.0,4.0,93,0.02,,,0.08,Wunderground v.1.13,2013-03-26 13:40:00,
2013-03-26 09:50:00,34.2,31.3,30.13,WSW,248,0.0,4.0,89,0.02,,,0.08,Wunderground v.1.13,2013-03-26 13:50:00,
2013-03-26 10:00:00,34.2,31.3,30.13,WSW,248,0.0,4.0,89,0.02,,,0.08,Wunderground v.1.13,2013-03-26 14:00:00,
2013-03-26 10:10:00,34.2,31.3,30.13,WSW,248,0.0,4.0,89,0.02,,,0.08,Wunderground v.1.13,2013-03-26 14:10:00,
2013-03-26 10:20:00,34.9,31.4,30.14,WSW,248,0.0,4.0,87,0.02,,,0.08,Wunderground v.1.13,2013-03-26 14:20:00,
2013-03-26 10:30:00,34.9,31.4,30.14,WSW,248,0.0,4.0,87,0.02,,,0.08,Wunderground v.1.13,2013-03-26 14:30:00,
2013-03-26 10:40:00,34.9,31.4,30.14,WSW,248,0.0,4.0,87,0.02,,,0.08,Wunderground v.1.13,2013-03-26 14:40:00,
2013-03-26 10:50:00,34.9,31.7,30.14,SW,225,0.0,4.0,88,0.05,,,0.08,Wunderground v.1.13,2013-03-26 14:50:00,
2013-03-26 11:00:00,34.9,31.7,30.14,SW,225,0.0,4.0,88,0.05,,,0.08,Wunderground v.1.13,2013-03-26 15:00:00,
2013-03-26 11:10:00,34.9,31.7,30.14,SW,225,0.0,4.0,88,0.05,,,0.08,Wunderground v.1.13,2013-03-26 15:10:00,
2013-03-26 11:20:00,35.5,29.9,30.14,SW,225,1.0,7.0,80,0.04,,,0.08,Wunderground v.1.13,2013-03-26 15:20:00,
2013-03-26 11:30:00,35.5,29.9,30.14,SW,225,1.0,7.0,80,0.04,,,0.08,Wunderground v.1.13,2013-03-26 15:30:00,
2013-03-26 11:40:00,35.5,29.9,30.14,SW,225,1.0,7.0,80,0.04,,,0.08,Wunderground v.1.13,2013-03-26 15:40:00,
2013-03-26 11:50:00,37.1,30.2,30.14,WNW,293,1.0,7.0,76,0.00,,,0.08,Wunderground v.1.13,2013-03-26 15:50:00,
2013-03-26 12:00:00,37.1,30.2,30.14,WNW,293,1.0,7.0,76,0.00,,,0.08,Wunderground v.1.13,2013-03-26 16:00:00,
2013-03-26 12:10:00,37.1,30.2,30.14,WNW,293,1.0,7.0,76,0.00,,,0.08,Wunderground v.1.13,2013-03-26 16:10:00,
2013-03-26 12:20:00,37.1,29.2,30.14,SW,225,1.0,10.0,73,0.00,,,0.08,Wunderground v.1.13,2013-03-26 16:20:00,
2013-03-26 12:30:00,37.1,29.2,30.14,SW,225,1.0,10.0,73,0.00,,,0.08,Wunderground v.1.13,2013-03-26 16:30:00,
2013-03-26 12:40:00,37.1,29.2,30.14,SW,225,1.0,10.0,73,0.00,,,0.08,Wunderground v.1.13,2013-03-26 16:40:00,
2013-03-26 12:50:00,38.1,26.6,30.14,NW,315,1.0,9.0,63,0.00,,,0.08,Wunderground v.1.13,2013-03-26 16:50:00,
2013-03-26 13:00:00,38.1,26.6,30.14,NW,315,1.0,9.0,63,0.00,,,0.08,Wunderground v.1.13,2013-03-26 17:00:00,
2013-03-26 13:10:00,38.1,26.6,30.14,NW,315,1.0,9.0,63,0.00,,,0.08,Wunderground v.1.13,2013-03-26 17:10:00,
2013-03-26 13:20:00,39.0,27.5,30.14,West,270,1.0,9.0,63,0.00,,,0.08,Wunderground v.1.13,2013-03-26 17:20:00,
2013-03-26 13:30:00,39.0,27.5,30.14,West,270,1.0,9.0,63,0.00,,,0.08,Wunderground v.1.13,2013-03-26 17:30:00,
2013-03-26 13:40:00,39.0,27.5,30.14,West,270,1.0,9.0,63,0.00,,,0.08,Wunderground v.1.13,2013-03-26 17:40:00,
2013-03-26 13:50:00,36.9,27.0,30.15,WNW,293,1.0,6.0,67,0.00,,,0.08,Wunderground v.1.13,2013-03-26 17:50:00,
2013-03-26 14:00:00,36.9,27.0,30.15,WNW,293,1.0,6.0,67,0.00,,,0.08,Wunderground v.1.13,2013-03-26 18:00:00,
2013-03-26 14:10:00,36.9,27.0,30.15,WNW,293,1.0,6.0,67,0.00,,,0.08,Wunderground v.1.13,2013-03-26 18:10:00,
2013-03-26 14:20:00,38.1,28.1,30.15,WNW,293,1.0,5.0,67,0.00,,,0.08,Wunderground v.1.13,2013-03-26 18:20:00,
2013-03-26 14:30:00,38.1,28.1,30.15,WNW,293,1.0,5.0,67,0.00,,,0.08,Wunderground v.1.13,2013-03-26 18:30:00,
2013-03-26 14:40:00,38.1,28.1,30.15,WNW,293,1.0,5.0,67,0.00,,,0.08,Wunderground v.1.13,2013-03-26 18:40:00,
2013-03-26 14:50:00,36.7,28.9,30.17,WNW,293,1.0,7.0,73,0.00,,,0.08,Wunderground v.1.13,2013-03-26 18:50:00,
2013-03-26 15:00:00,36.7,28.9,30.17,WNW,293,1.0,7.0,73,0.00,,,0.08,Wunderground v.1.13,2013-03-26 19:00:00,
2013-03-26 15:10:00,36.7,28.9,30.17,WNW,293,1.0,7.0,73,0.00,,,0.08,Wunderground v.1.13,2013-03-26 19:10:00,
2013-03-26 15:20:00,36.8,27.6,30.17,NW,315,0.0,3.0,69,0.00,,,0.08,Wunderground v.1.13,2013-03-26 19:20:00,
2013-03-26 15:30:00,36.8,27.6,30.17,NW,315,0.0,3.0,69,0.00,,,0.08,Wunderground v.1.13,2013-03-26 19:30:00,
2013-03-26 15:40:00,36.8,27.6,30.17,NW,315,0.0,3.0,69,0.00,,,0.08,Wunderground v.1.13,2013-03-26 19:40:00,
2013-03-26 15:50:00,37.4,26.7,30.17,SW,225,0.0,5.0,65,0.00,,,0.08,Wunderground v.1.13,2013-03-26 19:50:00,
2013-03-26 16:00:00,37.4,26.7,30.17,SW,225,0.0,5.0,65,0.00,,,0.08,Wunderground v.1.13,2013-03-26 20:00:00,
2013-03-26 16:10:00,37.4,26.7,30.17,SW,225,0.0,5.0,65,0.00,,,0.08,Wunderground v.1.13,2013-03-26 20:10:00,
2013-03-26 16:20:00,37.4,26.7,30.17,West,270,0.0,4.0,65,0.00,,,0.08,Wunderground v.1.13,2013-03-26 20:20:00,
2013-03-26 16:30:00,37.4,26.7,30.17,West,270,0.0,4.0,65,0.00,,,0.08,Wunderground v.1.13,2013-03-26 20:30:00,
2013-03-26 16:40:00,37.4,26.7,30.17,West,270,0.0,4.0,65,0.00,,,0.08,Wunderground v.1.13,2013-03-26 20:40:00,
2013-03-26 16:50:00,37.5,27.5,30.19,WSW,248,0.0,3.0,67,0.00,,,0.08,Wunderground v.1.13,2013-03-26 20:50:00,
2013-03-26 17:00:00,37.5,27.5,30.19,WSW,248,0.0,3.0,67,0.00,,,0.08,Wunderground v.1.13,2013-03-26 21:00:00,
2013-03-26 17:10:00,37.5,27.5,30.19,WSW,248,0.0,3.0,67,0.00,,,0.08,Wunderground v.1.13,2013-03-26 21:10:00,
2013-03-26 17:20:00,35.4,29.8,30.20,WNW,293,0.0,3.0,80,0.00,,,0.08,Wunderground v.1.13,2013-03-26 21:20:00,
2013-03-26 17:30:00,35.4,29.8,30.20,WNW,293,0.0,3.0,80,0.00,,,0.08,Wunderground v.1.13,2013-03-26 21:30:00,
2013-03-26 17:40:00,35.4,29.8,30.20,WNW,293,0.0,3.0,80,0.00,,,0.08,Wunderground v.1.13,2013-03-26 21:40:00,
2013-03-26 17:50:00,35.5,29.0,30.21,West,270,0.0,1.0,77,0.00,,,0.08,Wunderground v.1.13,2013-03-26 21:50:00,
2013-03-26 18:00:00,35.5,29.0,30.21,West,270,0.0,1.0,77,0.00,,,0.08,Wunderground v.1.13,2013-03-26 22:00:00,
2013-03-26 18:10:00,35.5,29.0,30.21,West,270,0.0,1.0,77,0.00,,,0.08,Wunderground v.1.13,2013-03-26 22:10:00,
2013-03-26 18:20:00,35.9,29.1,30.23,West,270,0.0,1.0,76,0.00,,,0.08,Wunderground v.1.13,2013-03-26 22:20:00,
2013-03-26 18:30:00,35.9,29.1,30.23,West,270,0.0,1.0,76,0.00,,,0.08,Wunderground v.1.13,2013-03-26 22:30:00,
2013-03-26 18:40:00,35.9,29.1,30.23,West,270,0.0,1.0,76,0.00,,,0.08,Wunderground v.1.13,2013-03-26 22:40:00,
2013-03-26 18:50:00,35.8,29.3,30.24,SW,225,0.0,2.0,77,0.00,,,0.08,Wunderground v.1.13,2013-03-26 22:50:00,
2013-03-26 19:00:00,35.8,29.3,30.24,SW,225,0.0,2.0,77,0.00,,,0.08,Wunderground v.1.13,2013-03-26 23:00:00,
2013-03-26 19:10:00,35.8,29.3,30.24,SW,225,0.0,2.0,77,0.00,,,0.08,Wunderground v.1.13,2013-03-26 23:10:00,
2013-03-26 19:20:00,35.8,29.0,30.24,WSW,248,0.0,1.0,76,0.00,,,0.08,Wunderground v.1.13,2013-03-26 23:20:00,
2013-03-26 19:30:00,35.8,29.0,30.24,WSW,248,0.0,1.0,76,0.00,,,0.08,Wunderground v.1.13,2013-03-26 23:30:00,
2013-03-26 19:40:00,35.8,29.0,30.24,WSW,248,0.0,1.0,76,0.00,,,0.08,Wunderground v.1.13,2013-03-26 23:40:00,
2013-03-26 19:50:00,35.4,29.2,30.25,N/A,-737280,0.0,0.0,78,0.00,,,0.08,Wunderground v.1.13,2013-03-26 23:50:00,
2013-03-26 20:00:00,35.4,29.2,30.25,N/A,-737280,0.0,0.0,78,0.00,,,0.08,Wunderground v.1.13,2013-03-27 00:00:00,
2013-03-26 20:10:00,35.4,29.2,30.25,N/A,-737280,0.0,0.0,78,0.00,,,0.08,Wunderground v.1.13,2013-03-27 00:10:00,
2013-03-26 20:20:00,34.9,28.7,30.26,WSW,248,0.0,1.0,78,0.00,,,0.08,Wunderground v.1.13,2013-03-27 00:20:00,
2013-03-26 20:30:00,34.9,28.7,30.26,WSW,248,0.0,1.0,78,0.00,,,0.08,Wunderground v.1.13,2013-03-27 00:30:00,
2013-03-26 20:40:00,34.9,28.7,30.26,WSW,248,0.0,1.0,78,0.00,,,0.08,Wunderground v.1.13,2013-03-27 00:40:00,
2013-03-26 20:50:00,34.5,28.7,30.27,N/A,-737280,0.0,0.0,79,0.00,,,0.08,Wunderground v.1.13,2013-03-27 00:50:00,
2013-03-26 21:00:00,34.5,28.7,30.27,N/A,-737280,0.0,0.0,79,0.00,,,0.08,Wunderground v.1.13,2013-03-27 01:00:00,
2013-03-26 21:10:00,34.5,28.7,30.27,N/A,-737280,0.0,0.0,79,0.00,,,0.08,Wunderground v.1.13,2013-03-27 01:10:00,
2013-03-26 21:20:00,34.5,28.7,30.27,WSW,248,0.0,1.0,79,0.00,,,0.08,Wunderground v.1.13,2013-03-27 01:20:00,
2013-03-26 21:30:00,34.5,28.7,30.27,WSW,248,0.0,1.0,79,0.00,,,0.08,Wunderground v.1.13,2013-03-27 01:30:00,
2013-03-26 21:40:00,34.5,28.7,30.27,WSW,248,0.0,1.0,79,0.00,,,0.08,Wunderground v.1.13,2013-03-27 01:40:00,
2013-03-26 21:50:00,34.8,28.6,30.28,WSW,248,0.0,2.0,78,0.00,,,0.08,Wunderground v.1.13,2013-03-27 01:50:00,
2013-03-26 22:00:00,34.8,28.6,30.28,WSW,248,0.0,2.0,78,0.00,,,0.08,Wunderground v.1.13,2013-03-27 02:00:00,
2013-03-26 22:10:00,34.8,28.6,30.28,WSW,248,0.0,2.0,78,0.00,,,0.08,Wunderground v.1.13,2013-03-27 02:10:00,
2013-03-26 22:20:00,34.8,28.3,30.28,WSW,248,0.0,1.0,77,0.00,,,0.08,Wunderground v.1.13,2013-03-27 02:20:00,
2013-03-26 22:30:00,34.8,28.3,30.28,WSW,248,0.0,1.0,77,0.00,,,0.08,Wunderground v.1.13,2013-03-27 02:30:00,
2013-03-26 22:40:00,34.8,28.3,30.28,WSW,248,0.0,1.0,77,0.00,,,0.08,Wunderground v.1.13,2013-03-27 02:40:00,
2013-03-26 22:50:00,34.6,28.4,30.28,WSW,248,0.0,2.0,78,0.00,,,0.08,Wunderground v.1.13,2013-03-27 02:50:00,
2013-03-26 23:00:00,34.6,28.4,30.28,WSW,248,0.0,2.0,78,0.00,,,0.08,Wunderground v.1.13,2013-03-27 03:00:00,
2013-03-26 23:10:00,34.6,28.4,30.28,WSW,248,0.0,2.0,78,0.00,,,0.08,Wunderground v.1.13,2013-03-27 03:10:00,
2013-03-26 23:20:00,34.2,29.0,30.28,WSW,248,0.0,2.0,81,0.00,,,0.08,Wunderground v.1.13,2013-03-27 03:20:00,
2013-03-26 23:30:00,34.2,29.0,30.28,WSW,248,0.0,2.0,81,0.00,,,0.08,Wunderground v.1.13,2013-03-27 03:30:00,
2013-03-26 23:40:00,34.2,29.0,30.28,WSW,248,0.0,2.0,81,0.00,,,0.08,Wunderground v.1.13,2013-03-27 03:40:00,
2013-03-26 23:50:00,33.6,28.7,30.27,WSW,248,0.0,1.0,82,0.00,,,0.08,Wunderground v.1.13,2013-03-27 03:50:00,